GW2921 Weather Reports


time (UTC)temp
C
wind
direction
speed
KPH
gust
KPH
rain 1hr
cm
rain 24hr
cm
rain mn
cm
humidity
%
barometer
mb
20260906111553 18 0 0.0 3.2 0.00 0.00 0.00 96 1016.8
20260906110058 18 0 0.0 1.6 0.00 0.00 0.00 96 1016.6
20260906104556 18 0 0.0 1.6 0.00 0.00 0.00 96 1016.3
20260906103054 18 0 0.0 1.6 0.00 0.00 0.00 96 1016.2
20260906101554 18 0 0.0 0.0 0.00 0.00 0.00 96 1016.3
20260906100058 18 0 0.0 1.6 0.00 0.00 0.00 96 1016.1
20260906094555 18 0 0.0 0.0 0.00 0.00 0.00 96 1016.1
20260906093050 18 0 0.0 3.2 0.00 0.00 0.00 96 1016.1
20260906091558 18 284 0.0 1.6 0.00 0.00 0.00 97 1016.0
20260906090107 17 0 0.0 1.6 0.00 0.00 0.00 96 1015.6
20260906084602 17 0 0.0 0.0 0.00 0.00 0.00 96 1015.9
20260906083100 17 0 0.0 0.0 0.00 0.00 0.00 96 1015.8
20260906081620 17 0 0.0 1.6 0.00 0.00 0.00 96 1015.8
20260906080059 17 0 0.0 1.6 0.00 0.00 0.00 96 1016.1
20260906074610 17 0 0.0 0.0 0.00 0.00 0.00 96 1015.9
20260906073101 18 0 0.0 3.2 0.00 0.00 0.00 96 1016.2
20260906071555 18 0 0.0 3.2 0.00 0.00 0.00 96 1016.2
20260906070107 18 266 0.0 3.2 0.00 0.00 0.00 96 1016.2
20260906064556 18 0 0.0 0.0 0.00 0.00 0.00 95 1016.2
20260906063058 18 0 0.0 0.0 0.00 0.00 0.00 95 1016.1
20260906061610 18 0 0.0 0.0 0.00 0.00 0.00 95 1016.3
20260906060107 18 0 0.0 0.0 0.00 0.00 0.00 95 1016.7
20260906054605 18 0 0.0 1.6 0.00 0.00 0.00 95 1016.7
20260906053053 18 0 0.0 1.6 0.00 0.00 0.00 95 1016.7
20260906051606 18 0 0.0 1.6 0.00 0.00 0.00 95 1016.6
20260906050108 18 0 0.0 1.6 0.00 0.00 0.00 95 1016.8
20260906044557 18 0 0.0 3.2 0.00 0.00 0.00 94 1016.7
20260906043100 18 0 0.0 1.6 0.00 0.00 0.00 94 1016.5
20260906041601 18 0 0.0 0.0 0.00 0.00 0.00 94 1016.4
20260906040057 19 0 0.0 1.6 0.00 0.00 0.00 93 1016.7
20260906034600 19 0 0.0 1.6 0.00 0.00 0.00 93 1016.7
20260906033100 20 0 0.0 1.6 0.00 0.00 0.00 92 1017.0
20260906031604 20 0 0.0 1.6 0.00 0.00 0.00 92 1017.1
20260906030056 20 0 0.0 0.0 0.00 0.00 0.00 91 1017.3
20260906024552 20 265 0.0 3.2 0.00 0.00 0.00 92 1017.6
20260906023102 20 0 0.0 0.0 0.00 0.00 0.00 91 1017.5
20260906021607 20 0 0.0 0.0 0.00 0.00 0.00 90 1017.6
20260906020103 20 0 0.0 0.0 0.00 0.00 0.00 89 1017.5
20260906014553 21 0 0.0 0.0 0.00 0.00 0.00 87 1017.4
20260906013055 21 0 0.0 0.0 0.00 0.00 0.00 87 1017.3
20260906011555 21 0 0.0 0.0 0.00 0.00 0.00 85 1017.1
20260906010054 21 0 0.0 3.2 0.00 0.00 0.00 83 1016.8
20260906004601 22 0 0.0 3.2 0.00 0.00 0.00 82 1016.6
20260906003056 22 360 0.0 1.6 0.00 0.00 0.00 80 1016.5
20260906001554 22 0 0.0 3.2 0.00 0.00 0.00 79 1016.4
20260906000053 22 0 0.0 3.2 0.00 0.00 0.00 78 1016.4
20260905234558 23 360 0.0 6.4 0.00 0.00 0.00 76 1016.2
20260905233053 23 0 0.0 6.4 0.00 0.00 0.00 75 1016.2
20260905231553 24 0 0.0 6.4 0.00 0.00 0.00 73 1016.2
20260905230059 24 360 0.0 8.0 0.00 0.00 0.00 72 1016.4
20260905224603 25 360 1.6 8.0 0.00 0.00 0.00 70 1016.3
20260905223101 25 153 0.0 6.4 0.00 0.00 0.00 70 1016.3
20260905221601 25 135 0.0 4.8 0.00 0.00 0.00 69 1016.4
20260905220105 26 126 0.0 3.2 0.00 0.00 0.00 67 1016.2
20260905214557 27 0 0.0 4.8 0.00 0.00 0.00 65 1015.9
20260905213053 27 120 1.6 6.4 0.00 0.00 0.00 62 1015.8
20260905211621 27 205 1.6 12.9 0.00 0.00 0.00 64 1015.7
20260905210113 27 92 1.6 11.3 0.00 0.00 0.00 64 1015.6
20260905204558 27 168 3.2 6.4 0.00 0.00 0.00 62 1015.8
20260905203113 27 130 1.6 6.4 0.00 0.00 0.00 66 1015.5
20260905201553 26 0 1.6 8.0 0.00 0.00 0.00 66 1015.5
20260905200057 27 164 1.6 12.9 0.00 0.00 0.00 64 1015.7
20260905194557 27 153 0.0 6.4 0.00 0.00 0.00 65 1015.7
20260905193056 27 69 3.2 12.9 0.00 0.00 0.00 65 1015.9
20260905191550 27 126 1.6 12.9 0.00 0.00 0.00 61 1016.1
20260905190054 26 77 1.6 16.1 0.00 0.00 0.00 67 1016.3
20260905184603 26 80 3.2 9.7 0.00 0.00 0.00 72 1016.6
20260905183058 25 117 3.2 11.3 0.00 0.00 0.00 71 1016.8
20260905181612 25 0 1.6 4.8 0.00 0.00 0.00 74 1017.0
20260905180104 25 188 1.6 9.7 0.00 0.00 0.00 73 1016.9
20260905174555 24 0 0.0 6.4 0.00 0.00 0.00 76 1016.9
20260905173100 24 0 1.6 9.7 0.00 0.00 0.00 80 1017.1
20260905171557 23 275 1.6 6.4 0.00 0.00 0.00 80 1017.1
20260905170056 22 280 1.6 6.4 0.00 0.00 0.00 88 1017.5
20260905164603 21 0 0.0 3.2 0.00 0.00 0.00 90 1018.5
20260905163058 21 0 0.0 4.8 0.00 0.00 0.00 90 1018.8
20260905161554 21 0 0.0 1.6 0.00 0.00 0.00 90 1019.4
20260905160136 22 0 0.0 3.2 0.00 0.00 0.00 89 1019.4
20260905154604 22 0 0.0 3.2 0.00 0.00 0.00 88 1019.3
20260905153104 22 360 0.0 4.8 0.00 0.00 0.00 86 1019.6
20260905151602 23 360 1.6 9.7 0.00 0.00 0.00 84 1019.6
20260905150103 23 0 1.6 9.7 0.00 0.00 0.00 84 1019.5
20260905144601 25 95 1.6 4.8 0.00 0.00 0.00 85 1018.9
20260905143108 24 97 0.0 4.8 0.00 0.00 0.00 86 1018.2
20260905141558 24 0 0.0 4.8 0.00 0.00 0.00 86 1018.1
20260905140100 23 0 0.0 3.2 0.00 0.00 0.00 86 1018.3
20260905134551 23 0 0.0 3.2 0.00 0.00 0.00 87 1018.3
20260905133100 22 0 0.0 4.8 0.00 0.00 0.00 89 1018.5
20260905131603 22 0 0.0 4.8 0.00 0.00 0.00 90 1018.3
20260905130052 21 0 0.0 4.8 0.00 0.00 0.00 94 1018.4
20260905124554 20 0 0.0 4.8 0.00 0.00 0.00 96 1018.4
20260905123100 19 0 0.0 0.0 0.00 0.00 0.00 97 1018.4
20260905121556 18 0 0.0 1.6 0.00 0.00 0.00 97 1018.1
20260905120114 18 0 0.0 1.6 0.00 0.00 0.00 96 1018.0
20260905114558 18 0 0.0 3.2 0.00 0.00 0.00 97 1018.2
20260905113054 17 0 0.0 1.6 0.00 0.00 0.00 96 1018.2